SCP
0 0 0 0 0 0 0 0 0 0 0 0 0 0 0 0 0 0 0 0 0 0 0 0 0 0 0 0 0 0 0 0 0 0 0 0 0 0 0 0 0 0 0
0 0 0 0 0 0 0 0 0 0 0 0 0 0 0 0 0 0 0 0 0 0 0 0 0 0 0 0 0 0 0 0 0 0 0 0 0 0 0 0 0 0 0
0 0 0 0 0 0 0 0 0 0 0 0 0 0 0 0 0 0 0 0 0 0 0 0 0 0 0 0 0 0 0 0 0 0 0 0 0 0 0 0 0 0 0
0 0 0 0 0 0 0 0 0 0 0 0 0 0 0 0 0 0 0 0 0 0 0 0 0 0 0 0 0 0 0 0 0 0 0 0 0 0 0 0 0 0 0
0 0 0 0 0 0 0 0 0 0 0 0 0 0 0 0 0 0 0 0 0 0 0 0 0 0 0 0 0 0 0 0 0 0 0 0 0 0 0 0 0 0 0
0 0 0 0 0 0 0 0 0 0 0 0 0 0 0 0 0 0 0 0 0 0 0 0 0 0 0 0 0 0 0 0 0 0 0 0 0 0 0 0 0 0 0
0 0 0 0 0 0 0 0 0 0 0 0 0 0 0 0 0 0 0 0 0 0 0 0 0 0 0 0 0 0 0 0 0 0 0 0 0 0 0 0 0 0 0
0 0 0 0 0 0 0 0 0 0 0 0 0 0 0 0 0 0 0 0 0 0 0 0 0 0 0 0 0 0 0 0 0 0 0 0 0 0 0 0 0 0 0
0 0 0 0 0 0 0 0 0 0 0 0 0 0 0 0 0 0 0 0 0 0 0 0 0 0 0 0 0 0 0 0 0 0 0 0 0 0 0 0 0 0 0
0 0 0 0 0 0 0 0 0 0 0 0 0 0 0 0 0 0 0 0 0 0 0 0 0 0 0 0 0 0 0 0 0 0 0 0 0 0 0 0 0 0 0
0 0 0 0 0 0 0 0 0 0 0 0 0 0 0 0 0 0 0 0 0 0 0 0 0 0 0 0 0 0 0 0 0 0 0 0 0 0 0 0 0 0 0
0 0 0 0 0 0 0 0 0 0 0 0 0 0 0 0 0 0 0 0 0 0 0 0 0 0 0 0 0 0 0 0 0 0 0 0 0 0 0 0 0 0 0
0 0 0 0 0 0 0 0 0 0 0 0 0 0 0 0 0 0 0 0 0 0 0 0 0 0 0 0 0 0 0 0 0 0 0 0 0 0 0 0 0 0 0
0 0 0 0 0 0 0 0 0 0 0 0 0 0 0 0 0 0 0 0 0 0 0 0 0 0 0 0 0 0 0 0 0 0 0 0 0 0 0 0 0 0 0
0 0 0 0 0 0 0 0 0 0 0 0 0 0 0 0 0 0 0 0 0 0 0 0 0 0 0 0 0 0 0 0 0 0 0 0 0 0 0 0 0 0 0
0 0 0 0 0 0 0 0 0 0 0 0 0 0 0 0 0 0 0 0 0 0 0 0 0 0 0 0 0 0 0 0 0 0 0 0 0 0 0 0 0 0 0
0 0 0 0 0 0 0 0 0 0 0 0 0 0 0 0 0 0 0 0 0 0 0 0 0 0 0 0 0 0 0 0 0 0 0 0 0 0 0 0 0 0 0
0 0 0 0 0 0 0 0 0 0 0 0 0 0 0 0 0 0 0 0 0 0 0 0 0 0 0 0 0 0 0 0 0 0 0 0 0 0 0 0 0 0 0
0 0 0 0 0 0 0 0 0 0 0 0 0 0 0 0 0 0 0 0 0 0 0 0 0 0 0 0 0 0 0 0 0 0 0 0 0 0 0 0 0 0 0
0 0 0 0 0 0 0 0 0 0 0 0 0 0 0 0 0 0 0 0 0 0 0 0 0 0 0 0 0 0 0 0 0 0 0 0 0 0 0 0 0 0 0
0 0 0 0 0 0 0 0 0 0 0 0 0 0 0 0 0 0 0 0 0 0 0 0 0 0 0 0 0 0 0 0 0 0 0 0 0 0 0 0 0 0 0
0 0 0 0 0 0 0 0 0 0 0 0 0 0 0 0 0 0 0 0 0 0 0 0 0 0 0 0 0 0 0 0 0 0 0 0 0 0 0 0 0 0 0
0 0 0 0 0 0 0 0 0 0 0 0 0 0 0 0 0 0 0 0 0 0 0 0 0 0 0 0 0 0 0 0 0 0 0 0 0 0 0 0 0 0 0
0 0 0 0 0 0 0 0 0 0 0 0 0 0 0 0 0 0 0 0 0 0 0 0 0 0 0 0 0 0 0 0 0 0 0 0 0 0 0 0 0 0 0
0 0 0 0 0 0 0 0 0 0 0 0 0 0 0 0 0 0 0 0 0 0 0 0 0 0 0 0 0 0 0 0 0 0 0 0 0 0 0 0 0 0 0
0 0 0 0 0 0 0 0 0 0 0 0 0 0 0 0 0 0 0 0 0 0 0 0 0 0 0 0 0 0 0 0 0 0 0 0 0 0 0 0 0 0 0
Wind_Speed
3 4 3 4 4 3 4 4 3 3 2 2 2 1 1 2 1 1 3 8 8 7 6 6 6 6 6 5 4 4 3 3 2 2 1 1 1 2 2 3 3 4 5
3 3 3 3 2 2 3 3 3 2 2 1 1 1 2 3 3 2 3 5 9 9 9 9 8 8 8 7 7 6 6 5 5 4 4 3 2 2 1 0 1 2 2
4 3 2 3 2 2 3 2 2 1 1 1 2 3 3 2 2 3 3 3 5 9 10 11 10 9 9 9 9 8 8 8 7 7 7 6 5 5 4 3 2 1 0
5 4 3 3 3 3 2 2 1 1 2 2 2 3 2 2 3 4 3 3 3 4 7 10 9 9 9 9 10 9 9 9 10 9 9 8 8 7 7 6 5 4 4
5 4 3 3 3 2 2 2 2 2 2 2 2 2 2 2 3 4 4 4 3 3 3 6 9 8 7 8 9 9 9 8 9 10 10 10 10 10 10 9 8 8 7
5 4 3 3 3 2 2 2 2 2 2 2 2 3 3 4 4 4 4 3 2 2 2 2 3 4 5 5 6 7 7 7 7 9 10 11 12 12 11 11 11 10 9
5 4 3 3 3 3 3 3 3 3 3 2 1 3 4 6 6 4 3 2 1 1 2 2 1 1 1 2 2 4 6 7 7 7 8 10 11 12 14 14 12 11 11
4 3 4 3 3 3 3 3 2 2 2 2 2 1 3 3 3 3 2 2 1 2 2 3 3 3 2 2 3 3 5 6 7 8 8 8 9 10 12 13 14 13 12
3 3 3 3 2 2 3 3 2 3 3 3 3 3 2 3 2 1 0 1 2 2 2 3 3 3 3 3 3 5 6 6 7 7 7 7 7 9 10 11 12 12 13
2 2 2 2 2 1 2 2 2 2 3 3 2 3 3 2 1 2 1 0 2 2 2 3 3 3 4 3 5 8 8 7 6 6 6 6 6 7 7 8 8 8 9
3 2 2 1 1 1 2 2 2 2 2 3 3 2 2 2 3 3 3 1 1 1 2 3 3 3 4 5 4 7 8 8 7 6 6 5 5 5 5 5 4 4 5
3 3 2 1 1 1 1 1 2 2 2 3 2 2 2 2 2 3 4 3 2 1 2 3 3 3 4 4 6 9 9 9 9 8 7 6 6 6 6 5 3 2 1
2 3 2 1 1 1 1 1 2 2 2 2 2 2 2 2 2 2 2 2 2 2 2 2 3 3 4 3 4 8 9 10 10 10 9 10 9 8 7 7 6 4 3
3 3 2 2 1 0 0 1 1 1 1 2 2 2 1 1 1 1 2 2 2 2 2 3 2 3 3 3 5 7 6 10 10 10 10 10 10 10 10 10 10 9 7
3 3 3 2 2 1 0 0 1 1 0 0 0 1 1 0 0 0 0 1 3 3 3 3 2 2 2 3 5 4 4 9 10 10 10 10 10 10 10 10 11 10 8
3 3 2 2 2 1 1 0 0 1 1 1 0 1 1 0 1 1 0 0 1 2 2 2 2 2 2 3 5 4 4 8 10 10 9 9 9 10 9 9 9 9 9
3 3 2 2 2 2 1 1 1 1 2 1 1 2 2 2 1 1 1 1 0 1 2 2 2 2 2 2 2 2 3 3 4 8 8 8 8 8 8 8 8 8 8
3 3 3 3 3 2 2 2 2 2 2 2 2 3 2 2 2 2 1 1 1 1 3 3 2 2 2 2 2 2 2 3 2 5 7 7 7 6 7 7 7 7 7
4 3 3 3 3 3 2 2 3 3 3 3 3 3 2 3 2 2 2 2 1 2 2 4 3 2 2 1 1 1 2 2 1 2 4 4 4 4 5 5 5 6 6
4 3 3 3 3 3 3 3 3 4 4 4 4 4 3 3 2 2 2 2 2 2 3 4 3 2 2 1 2 1 1 1 1 2 2 2 2 3 3 4 4 5 5
4 4 3 3 3 2 2 2 3 4 4 4 4 4 4 5 6 4 3 2 2 2 3 3 3 2 2 2 1 1 1 1 1 2 2 2 1 1 1 2 3 3 4
3 3 3 3 2 2 4 4 4 4 4 4 4 4 4 5 7 8 9 8 6 3 3 2 2 3 2 2 2 1 1 2 1 2 2 2 1 0 0 1 2 3 4
3 3 2 3 3 4 5 5 6 4 4 4 4 3 3 4 5 4 6 9 9 9 6 3 3 3 3 2 3 2 2 1 1 1 2 2 2 1 1 1 2 3 3
3 3 3 3 3 4 6 6 7 4 4 3 3 3 4 3 3 3 4 4 4 5 6 5 4 4 4 3 3 2 2 0 1 1 2 1 2 2 2 2 2 1 2
3 3 3 3 3 4 6 7 6 3 3 3 3 3 4 3 4 5 4 4 3 2 6 8 8 6 7 6 4 3 2 2 1 1 1 1 2 3 3 2 1 2 3
4 4 3 3 4 4 7 7 6 2 3 3 2 2 3 4 5 4 3 3 3 2 2 2 3 3 3 3 4 3 2 2 0 1 1 2 2 3 3 3 2 2 3
Wind_Direction
164 161 164 162 180 174 168 199 223 198 201 230 230 235 285 273 255 193 165 183 186 201 220 233 232 228 225 221 217 209 204 201 197 191 176 151 111 86 74 66 64 65 62
164 153 168 160 181 169 174 194 222 184 203 237 277 261 244 244 233 227 188 194 202 207 219 231 238 239 238 234 230 222 217 217 218 218 217 215 210 202 196 153 80 64 59
156 151 173 164 181 178 184 199 243 190 225 221 271 269 257 253 248 242 223 199 201 213 222 231 238 244 247 245 243 236 227 222 221 222 223 222 223 224 227 231 227 229 243
160 159 175 181 190 182 178 184 220 217 229 223 244 256 251 244 256 259 247 222 203 199 215 225 234 241 248 252 252 248 240 228 223 222 224 224 225 228 231 233 233 234 238
164 162 180 193 189 181 181 192 204 212 231 241 254 260 263 253 242 249 253 249 226 199 188 207 220 231 244 255 262 262 259 247 231 226 224 224 226 230 232 232 231 233 234
169 171 181 197 189 176 187 196 209 223 229 238 266 270 261 256 245 238 239 239 234 212 189 173 196 223 233 254 272 279 280 277 259 241 233 230 231 231 231 232 232 232 229
175 177 180 197 193 184 195 205 204 218 230 227 259 282 267 248 240 231 219 215 224 183 132 121 112 108 155 215 281 294 297 294 287 272 254 244 239 237 235 234 232 229 226
173 180 189 193 191 189 204 215 208 204 222 197 188 243 295 302 271 229 184 166 134 81 86 82 74 65 59 70 51 15 339 317 304 296 282 264 255 248 242 237 234 231 227
173 178 190 194 198 194 206 213 206 201 220 229 200 196 223 254 319 334 136 110 107 89 80 75 69 59 57 59 45 27 17 356 331 314 301 285 274 267 260 252 244 237 228
151 154 168 179 193 200 216 224 216 219 214 232 239 226 221 217 229 288 317 62 91 83 75 71 66 60 56 59 52 37 27 8 348 332 317 306 295 293 287 275 259 240 228
148 144 150 168 191 200 216 228 235 237 225 224 221 224 241 246 224 223 246 241 72 56 67 63 66 61 54 60 53 38 32 20 6 351 344 347 346 341 336 316 292 248 228
147 142 139 141 140 152 209 234 241 244 240 239 234 218 205 214 215 215 230 222 198 140 71 52 54 60 59 58 48 44 40 34 26 19 15 19 20 12 9 4 357 353 238
141 144 142 146 142 174 239 242 240 246 245 243 242 242 232 228 221 210 214 220 200 157 123 69 43 53 60 55 38 46 43 43 36 34 35 38 38 36 32 28 32 37 42
124 124 130 133 126 128 252 245 240 242 240 242 254 253 241 246 246 210 197 188 202 195 160 133 65 47 58 55 40 51 45 48 46 45 47 48 48 47 48 48 48 51 54
119 119 120 117 107 97 63 259 224 211 147 152 247 238 210 186 4 271 209 186 189 205 199 142 118 55 58 69 47 60 56 54 54 56 56 54 54 54 54 54 53 51 51
103 112 120 121 116 110 103 124 132 94 108 97 93 111 100 85 69 39 49 216 197 190 169 119 113 109 75 84 70 66 65 64 55 57 57 59 60 59 57 55 54 51 50
109 110 104 103 100 89 71 86 103 103 115 104 87 102 94 78 80 50 54 79 87 135 149 117 103 109 96 82 72 65 69 66 57 56 61 61 60 58 56 54 52 50 47
96 93 89 89 84 75 64 77 85 83 99 108 100 100 94 83 73 53 66 78 80 91 133 138 124 122 105 106 97 84 77 80 75 59 58 57 57 54 51 49 46 43 40
91 87 86 87 87 80 72 78 92 90 88 88 93 102 100 101 91 72 72 73 65 66 93 122 123 118 111 118 105 79 78 57 72 71 57 50 46 40 39 41 40 34 29
100 94 90 87 84 80 81 84 95 96 89 80 77 81 80 89 103 102 90 85 90 87 94 106 111 114 119 130 97 84 65 27 27 41 26 20 23 26 37 46 43 28 13
99 98 97 98 95 91 91 104 112 116 114 103 86 77 76 82 82 85 87 74 87 101 108 112 120 117 118 105 110 83 75 350 30 31 4 333 360 8 9 39 42 15 357
113 110 112 116 113 105 117 123 121 114 117 117 109 98 93 83 85 84 81 74 76 97 120 125 131 136 137 123 104 87 75 64 343 344 21 321 351 15 271 127 24 1 349
121 119 117 114 115 125 138 134 126 118 119 123 124 119 108 98 85 84 84 77 65 63 72 117 125 137 132 129 114 88 76 88 220 263 42 324 335 351 317 6 1 341 339
126 129 125 123 124 140 146 142 134 120 121 125 127 128 123 117 116 109 96 86 71 55 57 64 94 95 99 99 107 130 149 27 305 324 93 331 330 332 328 318 278 296 324
140 143 139 139 139 145 151 146 138 124 125 123 117 118 126 131 139 129 117 114 101 87 80 86 91 95 95 92 89 82 71 62 12 340 35 56 339 336 324 313 290 309 316
156 153 151 155 156 158 167 165 158 139 143 144 134 125 137 151 157 147 138 143 143 150 126 106 90 92 94 96 90 103 124 126 130 309 10 51 16 8 333 313 324 327 325